[[{"header":{"parameterUnit":"m.s-1","parameterCategory":1,"la1":30.2991,"la2":30.254,"lo1":-89.0895,"lo2":-89.0444,"dy":0.0017,"dx":0.0017,"nx":28,"ny":28,"refTime":"2024-12-15T03:00:00:Z","depth":0,"parameterNumber":2,"parameterNumberName":"U-component_of_WINDS"},"data":[0,0,0,0,0,0,0,0,0,0,0,0,0,0,0,0,0,0,0,0,0,0,0,0,0,0,0,0,0,0,0,0,0,0,0,0,0,0,0,0,0,0,0,0,0,0,0,0,0,0,0,0,0,0,0,0,0,0,-3.1451,-3.1452,0,-3.1513,-3.1514,-3.1514,-3.15,-3.1499,-3.1498,-3.1497,-3.1562,-3.1565,-3.1568,0,0,0,0,0,0,0,0,0,0,0,0,0,-3.1323,-3.1326,-3.1451,-3.1452,-3.1453,-3.1513,-3.1514,-3.1515,-3.15,-3.1499,-3.1497,-3.1496,-3.1561,-3.1565,-3.1568,0,0,0,0,0,0,0,0,0,0,0,0,0,-3.1381,-3.1327,-3.1451,-3.1453,-3.1453,-3.1513,-3.1514,-3.1515,-3.1501,-3.1499,-3.1497,-3.1495,-3.156,-3.1564,-3.1569,-3.1631,0,0,-3.1582,-3.1584,0,0,0,0,0,0,0,0,-3.1378,-3.1386,-3.1452,-3.1453,-3.1454,-3.1497,-3.1493,-3.1554,-3.1501,-3.1483,-3.1497,-3.1495,-3.1542,-3.1548,-3.1563,-3.1634,-3.1637,-3.1582,-3.1585,-3.1587,-3.1588,0,0,0,0,0,0,0,-3.1374,-3.1383,-3.1476,-3.1453,-3.1454,-3.1451,-3.1458,-3.1504,-3.1522,-3.1484,-3.1483,-3.1491,-3.1542,-3.1559,-3.1565,-3.1638,-3.1582,-3.1586,-3.1589,-3.159,-3.1764,-3.1766,0,0,0,0,0,0,-3.1369,-3.138,-3.1474,-3.1477,-3.1411,-3.1455,-3.1462,-3.1485,-3.1521,-3.1525,-3.1492,-3.149,-3.1553,-3.156,-3.1567,-3.1644,-3.1587,-3.1591,-3.1593,-3.1762,-3.1765,-3.1767,0,0,0,0,0,0,-3.1366,-3.1377,-3.1471,-3.1429,-3.144,-3.1459,-3.1485,-3.1487,-3.1504,-3.1527,-3.153,-3.1506,-3.1552,-3.1561,-3.1615,-3.1646,-3.1593,-3.1596,-3.176,-3.1763,-3.1766,-3.1796,0,0,0,0,0,0,-3.1363,-3.1376,-3.1399,-3.1429,-3.1443,-3.1517,-3.1487,-3.149,-3.1511,-3.1509,-3.1541,-3.1545,-3.1551,-3.1609,-3.162,-3.1651,-3.16,-3.1757,-3.1761,-3.1765,-3.1793,-3.18,-3.1806,0,0,0,0,0,-3.1358,-3.1405,-3.1401,-3.1412,-3.1472,-3.1519,-3.1527,-3.1532,-3.1513,-3.1537,-3.1553,-3.1544,-3.164,-3.1615,-3.1626,-3.1659,-3.1755,-3.176,-3.1765,-3.179,-3.1798,-3.1806,0,0,0,0,0,0,-3.1379,-3.1409,-3.1404,-3.1462,-3.1488,-3.1516,-3.1547,-3.1541,-3.1574,-3.157,-3.1576,-3.1584,-3.164,-3.1655,-3.1625,-3.1722,-3.1695,-3.1703,-3.171,-3.1719,-3.1726,-3.1721,-3.1603,0,0,0,0,0,-3.139,-3.1426,-3.145,-3.15,-3.1513,-3.1528,-3.1548,-3.1551,-3.1578,-3.1589,-3.1608,-3.1636,-3.1672,-3.1696,-3.1731,-3.1795,-3.1803,-3.1823,-3.183,-3.1835,-3.1842,-3.1879,-3.1888,-3.1782,-3.1782,-3.1782,0,0,-3.1414,-3.1435,-3.1457,-3.1504,-3.1525,-3.1562,-3.1537,-3.1577,-3.1606,-3.1595,-3.1648,-3.1663,-3.1694,-3.1754,-3.1781,-3.1768,-3.1873,-3.1841,-3.1845,-3.1849,-3.1884,-3.1894,-3.1903,-3.1785,-3.1785,-3.1784,0,0,-3.1477,-3.1496,-3.154,-3.1561,-3.1592,-3.1601,-3.1612,-3.1641,-3.1651,-3.1704,-3.1697,-3.1732,-3.1794,-3.1817,-3.1837,-3.1911,-3.1905,-3.1922,-3.1958,-3.1994,-3.2002,-3.201,-3.2038,-3.2047,-3.1928,-3.1928,-3.1928,0,-3.1503,-3.1559,-3.1563,-3.1605,-3.1626,-3.1618,-3.1664,-3.1684,-3.1725,-3.1741,-3.1726,-3.1805,-3.1826,-3.1892,-3.191,-3.1925,-3.1939,-3.1919,-3.2,-3.2008,-3.2015,-3.2042,-3.2052,-3.193,-3.193,-3.193,-3.193,0,-3.159,-3.1629,-3.1661,-3.17,-3.1726,-3.1769,-3.1781,-3.1806,-3.1807,-3.1818,-3.1873,-3.1898,-3.1938,-3.1954,-3.1954,-3.202,-3.2012,-3.1998,-3.1972,-3.2027,-3.2052,-3.2063,-3.1933,-3.1933,-3.1932,-3.1931,0,0,-3.1667,-3.171,-3.1722,-3.174,-3.1775,-3.1805,-3.1849,-3.1888,-3.1911,-3.1939,-3.1977,-3.2031,-3.202,-3.2042,-3.2046,-3.2077,-3.2136,-3.206,-3.2061,-3.2075,-3.2212,-3.2223,-3.2234,-3.2132,-3.2134,-3.2135,-3.221,0,-3.1735,-3.1811,-3.1817,-3.1886,-3.1923,-3.1916,-3.1955,-3.1981,-3.1993,-3.2027,-3.2041,-3.208,-3.2061,-3.2075,-3.2105,-3.2122,-3.2164,-3.2117,-3.2169,-3.217,-3.2162,-3.2247,-3.2258,-3.2328,-3.222,-3.2222,-3.2223,0,-3.1823,-3.1854,-3.1927,-3.1958,-3.1974,-3.2008,-3.2045,-3.2077,-3.2108,-3.2115,-3.2141,-3.214,-3.2187,-3.2158,-3.2223,-3.2191,-3.2213,-3.2224,-3.2227,-3.2233,-3.2201,-3.2257,-3.235,-3.2361,-3.2238,-3.2237,-3.2236,0,-3.1874,-3.1935,-3.1987,-3.2003,-3.2039,-3.2064,-3.2081,-3.2109,-3.2132,-3.2166,-3.2182,-3.222,-3.2241,-3.2271,-3.2282,-3.2259,-3.2348,-3.2319,-3.2356,-3.2356,-3.2376,-3.2375,-3.2475,-3.2388,-3.2387,-3.2387,-3.2387,0,-3.1949,-3.1994,-3.201,-3.2042,-3.2094,-3.21,-3.2151,-3.2167,-3.2192,-3.2228,-3.2225,-3.2259,-3.227,-3.2307,-3.2316,-3.2369,-3.2379,-3.2387,-3.2389,-3.2388,-3.2387,-3.2403,-3.2399,-3.239,-3.2389,-3.2389,-3.2388,0,-3.2014,-3.2027,-3.2084,-3.2114,-3.2123,-3.2159,-3.2186,-3.2218,-3.223,-3.2276,-3.2287,-3.2307,-3.235,-3.2363,-3.2415,-3.2421,-3.2485,-3.2481,-3.2474,-3.2475,-3.2512,-3.2509,-3.2627,-3.2644,-3.2544,-3.2545,-3.2546,0,-3.2062,-3.2097,-3.2131,-3.2155,-3.2172,-3.221,-3.2235,-3.2244,-3.227,-3.2307,-3.2335,-3.2377,-3.2412,-3.2481,-3.2501,-3.2541,-3.254,-3.2579,-3.2546,-3.2545,-3.2543,-3.2541,-3.2546,-3.2586,-3.2587,-3.2587,-3.2588,0,-3.2145,-3.215,-3.2185,-3.2223,-3.2253,-3.2283,-3.2312,-3.2332,-3.2345,-3.2375,-3.2419,-3.2446,-3.2499,-3.2542,-3.2583,-3.2601,-3.2598,-3.2598,-3.2609,-3.2609,-3.2604,-3.2609,-3.2492,-3.2596,-3.2595,-3.2594,-3.2594,-3.2594,-3.2204,-3.2236,-3.2265,-3.2305,-3.2328,-3.2356,-3.2388,-3.2404,-3.2441,-3.2485,-3.2488,-3.2536,-3.2567,-3.2622,-3.2642,-3.2681,-3.267,-3.2686,-3.269,-3.2694,-3.2698,-3.2597,-3.2688,-3.2688,-3.2688,-3.2688,-3.2688,0,-3.2289,-3.2308,-3.2344,-3.2386,-3.2418,-3.2411,-3.2443,-3.2471,-3.2513,-3.2541,-3.2576,-3.2627,-3.2669,-3.2693,-3.2735,-3.2762,-3.2761,-3.2773,-3.2772,-3.2776,-3.2704,-3.2691,-3.2773,-3.2772,-3.2772,-3.2772,-3.2772,-3.2772,-3.2337,-3.239,-3.2399,-3.2464,-3.2483,-3.2529,-3.2549,-3.2575,-3.2599,-3.2656,-3.2691,-3.2706,-3.2733,-3.2778,-3.2817,-3.2823,-3.2839,-3.2852,-3.2857,-3.279,-3.2781,-3.2773,-3.2761,-3.2855,-3.2855,-3.2926,-3.2927,-3.2927]},{"header":{"parameterUnit":"m.s-1","parameterCategory":1,"la1":30.2991,"la2":30.254,"lo1":-89.0895,"lo2":-89.0444,"dy":0.0017,"dx":0.0017,"nx":28,"ny":28,"refTime":"2024-12-15T03:00:00:Z","depth":0,"parameterNumber":3,"parameterNumberName":"V-component_of_WINDS"},"data":[0,0,0,0,0,0,0,0,0,0,0,0,0,0,0,0,0,0,0,0,0,0,0,0,0,0,0,0,0,0,0,0,0,0,0,0,0,0,0,0,0,0,0,0,0,0,0,0,0,0,0,0,0,0,0,0,0,0,0.231,0.231,0,0.2344,0.2345,0.2345,0.2392,0.2393,0.2394,0.2395,0.2429,0.2429,0.243,0,0,0,0,0,0,0,0,0,0,0,0,0,0.2286,0.2286,0.231,0.231,0.2311,0.2344,0.2345,0.2345,0.2392,0.2393,0.2394,0.2395,0.2429,0.2429,0.243,0,0,0,0,0,0,0,0,0,0,0,0,0,0.2306,0.2286,0.231,0.2338,0.2341,0.2344,0.2345,0.2345,0.2392,0.2393,0.2394,0.2396,0.2429,0.2429,0.243,0.2407,0,0,0.243,0.2431,0,0,0,0,0,0,0,0,0.2305,0.2307,0.2334,0.2336,0.234,0.2365,0.2349,0.2366,0.2392,0.2373,0.2395,0.2396,0.2407,0.2409,0.2413,0.2409,0.241,0.243,0.2431,0.2431,0.2431,0,0,0,0,0,0,0,0.2303,0.2306,0.2324,0.2334,0.2338,0.235,0.2354,0.2353,0.2383,0.2374,0.2378,0.2381,0.2409,0.2413,0.2414,0.2411,0.243,0.2431,0.2431,0.2431,0.2393,0.2392,0,0,0,0,0,0,0.2298,0.2304,0.2323,0.2325,0.2325,0.2349,0.2354,0.2356,0.2383,0.2388,0.238,0.2384,0.2412,0.2414,0.2415,0.2393,0.2431,0.2431,0.2431,0.2394,0.2393,0.2392,0,0,0,0,0,0,0.2297,0.2299,0.2321,0.2315,0.2319,0.2348,0.235,0.2356,0.236,0.2387,0.2393,0.2379,0.2413,0.2415,0.241,0.2395,0.2431,0.2431,0.2396,0.2394,0.2392,0.2347,0,0,0,0,0,0,0.2296,0.2298,0.229,0.2315,0.2319,0.2314,0.2349,0.2356,0.236,0.2365,0.2387,0.2392,0.2414,0.2409,0.241,0.2396,0.2432,0.2397,0.2395,0.2393,0.235,0.2344,0.2339,0,0,0,0,0,0.2295,0.2275,0.2289,0.2291,0.2309,0.2313,0.2316,0.2341,0.2359,0.2351,0.2369,0.2391,0.2396,0.2408,0.241,0.2395,0.2398,0.2396,0.2393,0.2352,0.2345,0.2339,0,0,0,0,0,0,0.2247,0.2279,0.2295,0.2282,0.2295,0.2321,0.2312,0.2332,0.234,0.2344,0.2375,0.238,0.2371,0.2382,0.2395,0.2377,0.2401,0.2398,0.2369,0.2363,0.2357,0.2355,0.2432,0,0,0,0,0,0.2235,0.2235,0.2263,0.2249,0.2255,0.2282,0.2285,0.2304,0.2318,0.2323,0.2341,0.2354,0.2359,0.2361,0.2367,0.2352,0.2358,0.2343,0.2337,0.2332,0.233,0.2325,0.2319,0.2383,0.2383,0.2383,0,0,0.2209,0.2227,0.2225,0.224,0.2252,0.2253,0.2286,0.2285,0.2286,0.2323,0.232,0.2333,0.235,0.234,0.2337,0.2349,0.2314,0.2329,0.2325,0.2326,0.2322,0.2316,0.2311,0.2381,0.2382,0.2382,0,0,0.2164,0.2177,0.2168,0.218,0.2198,0.2217,0.2214,0.2238,0.2249,0.2246,0.2275,0.2277,0.2283,0.2295,0.2302,0.2263,0.2285,0.2264,0.2235,0.223,0.2225,0.222,0.2208,0.2204,0.2261,0.2261,0.2261,0,0.2131,0.2133,0.2161,0.2158,0.2165,0.2199,0.2191,0.2201,0.222,0.2224,0.2238,0.2249,0.2262,0.2257,0.2248,0.2251,0.2251,0.2262,0.2223,0.2219,0.2216,0.2205,0.22,0.2259,0.2259,0.2259,0.226,0,0.2092,0.2093,0.2083,0.2102,0.2107,0.2102,0.2129,0.2131,0.215,0.2167,0.2165,0.2183,0.2194,0.2194,0.2211,0.2191,0.2199,0.2217,0.2243,0.2207,0.2197,0.2193,0.2255,0.2256,0.2257,0.2257,0,0,0.2017,0.2052,0.2048,0.2058,0.2081,0.2083,0.208,0.2091,0.2093,0.2105,0.2104,0.211,0.2129,0.2136,0.2155,0.2151,0.2121,0.217,0.2171,0.2162,0.2103,0.2089,0.2084,0.2136,0.2135,0.2134,0.2102,0,0.1977,0.1974,0.2,0.199,0.1992,0.2026,0.2024,0.2038,0.2054,0.2059,0.2077,0.2082,0.2105,0.211,0.2106,0.2126,0.211,0.2128,0.2136,0.2136,0.2132,0.2079,0.2064,0.2033,0.2098,0.2097,0.2097,0,0.1931,0.1942,0.1932,0.1958,0.196,0.1957,0.1971,0.1975,0.1992,0.2005,0.2014,0.2037,0.2037,0.206,0.2061,0.2072,0.2077,0.2087,0.2087,0.2089,0.2115,0.2081,0.2023,0.2019,0.2091,0.2091,0.2092,0,0.1879,0.1892,0.1888,0.1895,0.1925,0.1922,0.1935,0.1953,0.1959,0.1971,0.1976,0.1987,0.1993,0.2002,0.2027,0.2042,0.2026,0.2051,0.2037,0.2037,0.2033,0.2033,0.1976,0.2034,0.2034,0.2034,0.2034,0,0.1834,0.1827,0.1866,0.1864,0.1858,0.1888,0.1881,0.1897,0.1913,0.1916,0.1945,0.1946,0.1979,0.1985,0.2005,0.2003,0.2005,0.2016,0.2022,0.2015,0.2013,0.2019,0.2022,0.2033,0.2033,0.2033,0.2033,0,0.1775,0.1801,0.18,0.1828,0.1835,0.183,0.1855,0.1855,0.1873,0.1876,0.1878,0.1908,0.1916,0.1942,0.1956,0.197,0.1963,0.1972,0.1957,0.1961,0.1947,0.1948,0.1892,0.1887,0.1946,0.1946,0.1945,0,0.1745,0.1741,0.177,0.1774,0.1785,0.179,0.1797,0.1827,0.1832,0.1853,0.1851,0.1861,0.1872,0.1883,0.1906,0.1918,0.1929,0.1908,0.1931,0.1924,0.1931,0.1931,0.1932,0.1904,0.1903,0.1902,0.1902,0,0.1689,0.1703,0.1711,0.1724,0.1732,0.1744,0.1757,0.1758,0.1792,0.1797,0.1806,0.1814,0.183,0.184,0.1856,0.1869,0.1891,0.1895,0.1893,0.1885,0.1877,0.1883,0.1946,0.1896,0.1897,0.1897,0.1897,0.1898,0.1645,0.1644,0.1665,0.1674,0.1687,0.17,0.1702,0.1721,0.1729,0.1745,0.1762,0.1769,0.1789,0.1812,0.1824,0.1831,0.1843,0.1839,0.1838,0.1837,0.1835,0.1875,0.1833,0.1834,0.1834,0.1834,0.1834,0,0.1593,0.1608,0.1616,0.1635,0.1642,0.1663,0.1679,0.1684,0.1691,0.1707,0.1717,0.1728,0.1739,0.1764,0.1777,0.1778,0.1789,0.1781,0.1781,0.1785,0.1822,0.1824,0.1772,0.1772,0.1772,0.1772,0.1772,0.1772,0.1566,0.1566,0.1582,0.1589,0.1605,0.1613,0.1621,0.1633,0.1647,0.1658,0.1668,0.1683,0.1704,0.1719,0.173,0.1737,0.1742,0.173,0.1741,0.1776,0.1782,0.1787,0.1789,0.1731,0.1731,0.1703,0.1703,0.1702]}]]